This is the latest recevied weather packets stored in our database for station/object KD8TSA. If no packets are shown the sender has not sent any weather packets the latest 10 day(s).
| Time | Temp. | Humidity | Pressure | Rain* | Wind** | Luminosity | Snow |
|---|---|---|---|---|---|---|---|
| 1778268355 | 22.22° C | 46% | 1010.2 hPa | 0 mm | - | 401 W/m² | - |
| 1778268052 | 22.22° C | 50% | 1010.3 hPa | 0 mm | - | 724 W/m² | - |
| 1778267748 | 21.67° C | 55% | 1010.1 hPa | 0 mm | - | 718 W/m² | - |
| 1778267445 | 21.67° C | 50% | 1010.6 hPa | 0 mm | - | 746 W/m² | - |
| 1778267142 | 21.11° C | 51% | 1010.9 hPa | 0 mm | - | 750 W/m² | - |
| 1778266839 | 21.67° C | 54% | 1010.8 hPa | 0 mm | - | 319 W/m² | - |
| 1778266536 | 21.67° C | 51% | 1010.9 hPa | 0 mm | - | 422 W/m² | - |
| 1778266234 | 21.67° C | 49% | 1011.2 hPa | 0 mm | - | 925 W/m² | - |
| 1778265931 | 21.11° C | 51% | 1011.1 hPa | 0 mm | - | 492 W/m² | - |
| 1778265627 | 20.56° C | 52% | 1011.1 hPa | 0 mm | - | 621 W/m² | - |
| 1778265324 | 20° C | 53% | 1010.9 hPa | 0 mm | - | 508 W/m² | - |
| 1778265020 | 20° C | 52% | 1011.1 hPa | 0 mm | - | 404 W/m² | - |
| 1778264717 | 20° C | 52% | 1011.3 hPa | 0 mm | - | 319 W/m² | - |
| 1778264413 | 20.56° C | 52% | 1011.5 hPa | 0 mm | - | 339 W/m² | - |
| 1778264109 | 20.56° C | 53% | 1011.3 hPa | 0 mm | - | 348 W/m² | - |
| 1778263807 | 20.56° C | 51% | 1011.5 hPa | 0 mm | - | 386 W/m² | - |
| 1778263503 | 21.11° C | 53% | 1011.5 hPa | 0 mm | - | 559 W/m² | - |
| 1778263199 | 20.56° C | 54% | 1011.8 hPa | 0 mm | - | 458 W/m² | - |
| 1778262895 | 21.11° C | 50% | 1011.7 hPa | 0 mm | - | 464 W/m² | - |
| 1778262593 | 21.11° C | 53% | 1011.7 hPa | 0 mm | - | 446 W/m² | - |
| 1778262291 | 20.56° C | 55% | 1011.8 hPa | 0 mm | - | 860 W/m² | - |
| 1778261988 | 20.56° C | 54% | 1012 hPa | 0 mm | - | 530 W/m² | - |
| 1778261685 | 20.56° C | 53% | 1012 hPa | 0 mm | - | 777 W/m² | - |
| 1778261380 | 20° C | 52% | 1012 hPa | 0 mm | - | 776 W/m² | - |
| 1778261078 | 20° C | 57% | 1012.2 hPa | 0 mm | - | 769 W/m² | - |
* Rain latest hour (hover to see other rain measurements)
** Current wind speed in m/s (hover to see current wind gust speed)